Find Starlink 37890

NORAD ID: 69533 Int'l Des: 2026-133 Owner: SPXS Country: US Constellation: starlink operational
LEOCIRCULAR

当前视图

正在加载3D地球...

About Starlink 37890

Starlink 37890 (NORAD 69533) is a starlink constellation satellite (v2 mini) launched Jun 11, 2026 by SPXS of US. It operates in LEO, CIRCULAR orbit with a mass of 575.00 kg.

即将过境

Passes for default location (London). Set your location on the main map for personalized predictions.

高度历史

Loading altitude history...

两行轨道根数

1 69533U 26133AB 26228.48465972 .00011855 00000-0 36128-3 0 9999
2 69533 53.1607 33.7197 0001166 91.2801 268.8335 15.34412943 11389
Epoch: Aug 16, 2026 • Age: 17 hours

当前状态

高度 465.9 km
远地点 / 近地点 N/A
速度 7.63 km/s
星下点 -11.37°S, 15.31°W
发射日期 Jun 11, 2026
运行时间 0.1 years
类型 internet

技术详情

分类 Payload
质量 575.00 kg
干质量 530.00 kg
总质量 575.00 kg
长度 0.30 m
直径 4.10 m
跨度 29.00 m
形状 Box + pan
制造商 SPXS
平台类型 Starlink V2MO
阶段状态 In Orbit
所有者/国家 SPXS/US

Most Searched